SCOUT A DEB, 2141

Orbit data source: Space-Track

SCOUT A DEB, 2141 is space debris in LEO originally from a launch on Fri, 28 Jan 1966 UTC launched from the Air Force Western Test Range (AFWTR). Debris objects in space refer to the collection of defunct objects orbiting the Earth. Examples of debris include non-operational satellites, rocket bodies, and fragments generated from explosions, collisions, or faulty payload assembly.

Loading next visibility...
Identifier
2141, 1966-005D
Orbit
LEO
Last TLE update
8 hours ago
Origin
Manufacturer
Unknown
Mission
Spacecraft
Bus & Motor
Unknown
Mass
Unknown
Launch date (UTC)
1966-01-28 (59 years ago)
Launch vehicle
Unknown
Launch site
Air Force Western Test Range (AFWTR)
Object type
Payload
Rocket body
Debris
Shape & HBR
Unknown
Radar Cross Section
Small (<0.1 m²)

Expand to show TLE details & history

TLE from 8 hours ago
0 SCOUT A DEB
1 02141U 66005D   25183.88726922  .00000533  00000-0  30271-3 0  9995
2 02141  90.2304 249.4628 0118348  91.6354 269.8388 14.05352371 19517
Epoch: 2025-07-02T21:17Z
TLE epoch observation values (Epoch: 2025-07-02T21:17:40.06Z)
Latitude
-0.00003°
Longitude
8.88396°
Altitude
879.612 km
Speed
7.412 km/s
True Right ascension
16h 37m 51s
True Declination
0° 00' 00"
Sunlit
Object was in full shadow at epoch
Visualization orbit readout
Latitude
-19.89287°
Longitude
8.97588°
Altitude
911.731 km
Speed
7.38 km/s
Apparent Right ascension
14h 46m 44s
Apparent Declination
-70° 10' 13"
Sunlit
Object is in full shadow
Visualization observer readout
Local Sidereal Time
17:30:13
Azimuth
194.063° SSW
Elevation
-24.008°
Doppler factor
1
Orbital elements
Apogee altitude
958.096 km
Perigee altitude
786.481 km
Semi-major axis
7,250.426 km
Eccentricity
0.01183
Inclination
90.2304°
RAAN
249.4628°
Arg. of periapsis
91.6354°
True anomaly
Unknown
Mean anomaly
269.8388°
Eccentric anomaly
Unknown
Mean motion
3.51559 °/min
Orbital period
102.4 mins
BSTAR
0.00030271
Loading maneuver chart data...
Loading SW <> Apogee altitude chart data...
Loading historical data...
Loading historical data...
Loading historical data...
Loading historical data...
Loading historical data...
Loading historical data...
Loading historical data...

SCOUT A DEB Visibility forecast

Observer location: undefined°, undefined°

Span
Click to sort rows by Start time (UTC) header in descending order
Start Az.
Max El. time (UTC)
Max El. Az.
Max El.
End time (UTC)
End Az.
6 mins2025-07-03 05:58:39.469Z238.089° WSW2025-07-03 06:01:39.469Z277.121° WNW19.321°2025-07-03 06:04:39.469Z316.927° NNW
9 mins2025-07-03 16:40:39.469Z6.557° NNE2025-07-03 16:44:39.469Z87.16° E44.458°2025-07-03 16:49:39.469Z179.037° S
8 mins2025-07-04 04:10:39.469Z146.956° SSE2025-07-04 04:14:39.469Z80.169° E34.766°2025-07-04 04:18:39.469Z15.229° NNE
|